GW1545 Weather Reports


time (UTC)temp
F
wind
direction
speed
knots
gust
knots
rain 1hr
in
rain 24hr
in
rain mn
in
humidity
%
barometer
mb
20260503054237 38 240 0.0 0.0 0.00 0.00 0.00 71 1021.3
20260503053623 38 267 0.0 0.0 0.00 0.00 0.00 70 1021.6
20260503053051 39 29 0.0 0.9 0.00 0.00 0.00 68 1021.3
20260503052424 40 35 0.0 0.9 0.00 0.00 0.00 67 1021.3
20260503051854 40 9 0.0 0.9 0.00 0.00 0.00 66 1021.3
20260503051244 40 46 0.9 0.9 0.00 0.00 0.00 65 1021.6
20260503050649 41 15 0.0 0.9 0.00 0.00 0.00 65 1021.3
20260503050053 41 50 0.9 0.9 0.00 0.00 0.00 65 1021.3
20260503045418 41 34 0.9 1.7 0.00 0.00 0.00 65 1021.3
20260503044845 41 54 0.9 1.7 0.00 0.00 0.00 65 1021.3
20260503044242 41 33 1.7 2.6 0.00 0.00 0.00 64 1021.3
20260503043639 41 349 1.7 2.6 0.00 0.00 0.00 64 1021.3
20260503043016 41 27 0.9 1.7 0.00 0.00 0.00 64 1020.9
20260503042443 42 41 0.9 1.7 0.00 0.00 0.00 64 1020.9
20260503041823 42 355 0.0 0.9 0.00 0.00 0.00 64 1021.3
20260503040623 42 21 1.7 1.7 0.00 0.00 0.00 63 1020.9
20260503040047 42 31 0.9 0.9 0.00 0.00 0.00 63 1020.9
20260503035451 43 22 1.7 1.7 0.00 0.00 0.00 62 1020.9
20260503034851 43 92 0.9 1.7 0.00 0.00 0.00 62 1020.9
20260503034216 43 4 1.7 2.6 0.00 0.00 0.00 62 1020.9
20260503033638 43 7 2.6 3.5 0.00 0.00 0.00 62 1020.6
20260503032419 44 0 1.7 2.6 0.00 0.00 0.00 62 1020.6
20260503031839 44 77 0.9 0.9 0.00 0.00 0.00 62 1020.6
20260503031244 44 69 1.7 2.6 0.00 0.00 0.00 61 1020.6
20260503030642 44 29 2.6 3.5 0.00 0.00 0.00 60 1020.9
20260503030024 45 51 1.7 2.6 0.00 0.00 0.00 61 1020.6
20260503025424 45 20 1.7 2.6 0.00 0.00 0.00 60 1020.6
20260503024829 45 60 2.6 3.5 0.00 0.00 0.00 61 1020.6
20260503024233 45 43 1.7 2.6 0.00 0.00 0.00 60 1020.6
20260503023618 45 51 1.7 2.6 0.00 0.00 0.00 60 1020.6
20260503023036 45 47 1.7 2.6 0.00 0.00 0.00 61 1020.6
20260503022452 45 352 1.7 2.6 0.00 0.00 0.00 60 1020.6
20260503021852 45 71 1.7 2.6 0.00 0.00 0.00 60 1020.3
20260503021241 46 31 1.7 2.6 0.00 0.00 0.00 60 1020.3
20260503020644 46 66 1.7 3.5 0.00 0.00 0.00 61 1020.3
20260503020048 46 43 2.6 3.5 0.00 0.00 0.00 61 1020.3
20260503014817 47 71 1.7 2.6 0.00 0.00 0.00 58 1019.9
20260503014252 46 23 2.6 2.6 0.00 0.00 0.00 58 1019.9
20260503013627 46 56 0.0 0.0 0.00 0.00 0.00 60 1019.9
20260503013014 46 198 0.0 0.0 0.00 0.00 0.00 59 1019.9
20260503011811 47 58 0.0 0.0 0.00 0.00 0.00 60 1019.6
20260503011231 47 106 0.0 0.0 0.00 0.00 0.00 60 1019.6
20260503010623 47 4 0.0 0.9 0.00 0.00 0.00 59 1019.6
20260503010028 47 8 0.0 0.9 0.00 0.00 0.00 60 1019.3
20260503005413 47 157 0.0 0.0 0.00 0.00 0.00 59 1019.6
20260503004843 48 113 0.0 0.0 0.00 0.00 0.00 59 1019.3
20260503004211 48 196 0.0 0.9 0.00 0.00 0.00 58 1019.6
20260503003641 48 213 0.0 0.9 0.00 0.00 0.00 58 1019.6
20260503003018 48 189 0.0 0.9 0.00 0.00 0.00 59 1019.3
20260503001815 49 11 0.0 0.0 0.00 0.00 0.00 57 1019.3
20260503001232 50 8 0.0 0.9 0.00 0.00 0.00 56 1019.3
20260503000048 50 112 1.7 1.7 0.00 0.00 0.00 54 1018.9
20260502235410 50 265 0.0 0.0 0.00 0.00 0.00 55 1018.9
20260502234841 50 38 0.0 0.0 0.00 0.00 0.00 55 1018.9
20260502234245 50 226 0.0 0.9 0.00 0.00 0.00 54 1018.9
20260502233641 51 339 1.7 2.6 0.00 0.00 0.00 54 1018.9
20260502232429 51 78 1.7 2.6 0.00 0.00 0.00 53 1018.9
20260502231840 51 274 4.3 6.1 0.00 0.00 0.00 53 1018.9
20260502231212 51 230 1.7 2.6 0.00 0.00 0.00 52 1018.9
20260502230630 51 241 0.9 1.7 0.00 0.00 0.00 52 1018.6
20260502230040 52 185 5.2 6.1 0.00 0.00 0.00 51 1018.9
20260502225434 52 275 1.7 2.6 0.00 0.00 0.00 51 1018.6
20260502224832 52 245 0.9 1.7 0.00 0.00 0.00 51 1018.6
20260502224226 52 285 2.6 3.5 0.00 0.00 0.00 51 1018.6
20260502223035 52 311 2.6 4.3 0.00 0.00 0.00 51 1018.9
20260502222421 52 205 5.2 6.1 0.00 0.00 0.00 51 1018.9
20260502221839 52 266 3.5 6.1 0.00 0.00 0.00 50 1018.9
20260502221254 52 212 5.2 7.0 0.00 0.00 0.00 49 1018.9
20260502220621 52 244 5.2 7.8 0.00 0.00 0.00 49 1018.9
20260502220030 53 237 1.7 3.5 0.00 0.00 0.00 51 1018.2
20260502215411 52 252 2.6 3.5 0.00 0.00 0.00 49 1018.2
20260502214823 53 248 6.1 7.0 0.00 0.00 0.00 49 1018.6
20260502213651 53 292 1.7 3.5 0.00 0.00 0.00 50 1018.6
20260502213041 53 27 0.9 1.7 0.00 0.00 0.00 49 1018.6
20260502212448 52 351 1.7 1.7 0.00 0.00 0.00 51 1018.6
20260502211814 52 225 0.9 1.7 0.00 0.00 0.00 49 1018.6
20260502211238 52 281 7.0 8.7 0.00 0.00 0.00 49 1018.2
20260502210627 53 218 4.3 5.2 0.00 0.00 0.00 48 1018.2
20260502210034 53 254 2.6 3.5 0.00 0.00 0.00 47 1018.2
20260502205414 54 342 1.7 3.5 0.00 0.00 0.00 50 1018.2
20260502204235 54 232 0.9 1.7 0.00 0.00 0.00 46 1018.2
20260502203612 54 241 8.7 9.6 0.00 0.00 0.00 46 1018.6
20260502203052 54 212 1.7 1.7 0.00 0.00 0.00 47 1018.2
20260502202443 55 11 2.6 3.5 0.00 0.00 0.00 45 1018.6
20260502201845 56 224 1.7 2.6 0.00 0.00 0.00 50 1018.6
20260502201211 55 174 1.7 1.7 0.00 0.00 0.00 47 1018.2
20260502200650 54 3 3.5 5.2 0.00 0.00 0.00 48 1018.6
20260502200039 54 30 1.7 2.6 0.00 0.00 0.00 51 1018.6
20260502195414 55 350 1.7 3.5 0.00 0.00 0.00 48 1018.6
20260502194838 55 248 5.2 7.0 0.00 0.00 0.00 46 1018.6
20260502194248 56 246 7.0 10.4 0.00 0.00 0.00 46 1018.6
20260502193634 56 204 3.5 4.3 0.00 0.00 0.00 45 1018.6
20260502193038 55 159 0.9 1.7 0.00 0.00 0.00 49 1018.9
20260502192426 54 58 1.7 2.6 0.00 0.00 0.00 49 1018.9
20260502191852 54 59 0.0 0.9 0.00 0.00 0.00 48 1018.9
20260502190615 54 259 0.9 1.7 0.00 0.00 0.00 48 1018.9
20260502190018 54 298 1.7 2.6 0.00 0.00 0.00 50 1018.9
20260502185437 56 36 4.3 5.2 0.00 0.00 0.00 48 1018.9
20260502184255 56 2 1.7 2.6 0.00 0.00 0.00 51 1019.3
20260502183654 55 35 3.5 4.3 0.00 0.00 0.00 49 1019.3
20260502183016 54 336 0.9 1.7 0.00 0.00 0.00 50 1019.3
20260502182440 54 278 1.7 2.6 0.00 0.00 0.00 48 1019.3
20260502181833 55 112 0.0 1.7 0.00 0.00 0.00 47 1018.9
20260502181254 54 177 1.7 2.6 0.00 0.00 0.00 47 1019.3
20260502180621 55 40 2.6 3.5 0.00 0.00 0.00 51 1019.3
20260502164244 55 286 1.7 1.7 0.00 0.00 0.00 52 1019.9
20260502163631 53 48 0.9 1.7 0.00 0.00 0.00 53 1019.9
20260502163053 54 39 3.5 4.3 0.00 0.00 0.00 52 1019.9
20260502162442 55 99 2.6 3.5 0.00 0.00 0.00 52 1019.9
20260502161816 54 50 2.6 3.5 0.00 0.00 0.00 57 1019.9
20260502161221 53 343 5.2 6.1 0.00 0.00 0.00 55 1019.9
20260502160623 53 31 2.6 2.6 0.00 0.00 0.00 57 1019.9
20260502151833 52 291 2.6 3.5 0.00 0.00 0.00 58 1020.3
20260502151241 54 230 2.6 3.5 0.00 0.00 0.00 64 1020.3
20260502150650 52 113 1.7 2.6 0.00 0.00 0.00 60 1020.3
20260502130631 49 337 1.7 2.6 0.00 0.00 0.00 74 1019.9
20260502123635 46 342 0.9 1.7 0.00 0.00 0.00 83 1019.9
20260502122440 43 227 1.7 1.7 0.00 0.00 0.00 88 1019.9
20260502121222 42 219 0.9 1.7 0.00 0.00 0.00 94 1019.9
20260502120644 42 208 0.0 0.0 0.00 0.00 0.00 95 1019.6
20260502115451 39 198 0.0 0.0 0.00 0.00 0.00 96 1019.9
20260502114813 39 98 0.0 0.0 0.00 0.00 0.00 96 1019.9
20260502114232 38 101 0.0 0.0 0.00 0.00 0.00 96 1019.6
20260502113611 37 196 0.0 0.0 0.00 0.00 0.00 96 1019.6
20260502113039 36 220 0.0 0.0 0.00 0.00 0.00 96 1019.6
20260502112437 36 211 0.0 0.0 0.00 0.00 0.00 96 1019.6
20260502111828 36 217 0.0 0.0 0.00 0.00 0.00 96 1019.6
20260502111226 36 140 0.0 0.0 0.00 0.00 0.00 96 1019.3
20260502110017 37 302 0.9 0.9 0.00 0.00 0.00 96 1019.3
20260502105418 37 288 0.0 0.9 0.00 0.00 0.00 96 1019.3
20260502104829 36 175 0.0 0.0 0.00 0.00 0.00 96 1019.3
20260502104217 37 125 0.0 0.0 0.00 0.00 0.00 96 1019.3
20260502103635 37 106 0.0 0.0 0.00 0.00 0.00 96 1019.3
20260502103043 36 95 0.0 0.0 0.00 0.00 0.00 95 1019.3
20260502102419 36 79 0.0 0.0 0.00 0.00 0.00 95 1019.3
20260502101846 36 55 0.0 0.9 0.00 0.00 0.00 95 1019.3
20260502100630 36 74 1.7 1.7 0.00 0.00 0.00 95 1019.3
20260502091252 38 184 0.0 0.0 0.00 0.00 0.00 94 1019.6
20260502090624 38 129 0.0 0.0 0.00 0.00 0.00 94 1019.6
20260502071224 39 208 0.0 0.0 0.00 0.00 0.00 87 1019.3
20260502070652 40 122 0.0 0.0 0.00 0.00 0.00 87 1019.3
20260502070035 40 7 0.0 0.9 0.00 0.00 0.00 88 1019.3